Location: Cluj-Napoca
(46.7712°N, 23.6236°E)
Time: 07:06:09
(UTC+02:00)

ISS - Pass Details

Date: 31 January 2021
Orbit: 417 x 422 km, 51.6° (Epoch: 08 March)

Event Time Altitude Azimuth Distance (km) Brightness Sun altitude
Rises 19:05:39 0° 295° (WNW) 2,376 1.1 -16.9°
Reaches altitude 10° 19:07:47 10° 299° (WNW) 1,510 -0.2 -17.3°
Maximum altitude 19:11:08 58° 20° (NNE) 496 -3.6 -17.9°
Enters shadow 19:11:31 54° 53° (NE) 522 -3.7 -17.9°
